Regional Weather Roundup
Issued by NWS Newport/Morehead, NC

Current Version | Previous Version | Text Only | Print | Product List | Glossary Off
Versions: 1 2 3 4 5 6 7 8 9 10 11 12 13 14 15 16 17 18 19 20 21 22 23 24 25 26 27 28 29 30 31 32 33 34 35 36 37 38 39 40 41 42 43 44 45 46 47 48 49 50
000 ASUS42 KMHX 241813 RWRMHX WEATHER ROUNDUP FOR EASTERN NORTH CAROLINA NATIONAL WEATHER SERVICE NEWPORT/MOREHEAD CITY NC 100 PM EST FRI FEB 24 2017 NOTE: "FAIR" INDICATES FEW OR NO CLOUDS BELOW 12,000 FEET WITH NO SIGNIFICANT WEATHER AND/OR OBSTRUCTIONS TO VISIBILITY NCZ015>017-031-032-045>047-102-103-241900- NORTH COAST CITY SKY/WX TMP DP RH WIND PRES REMARKS EDENTON MOSUNNY 76 58 55 SE6 29.91F ELIZABETH CITY MOSUNNY 74 60 61 E13 29.91F KITTY HAWK NOT AVBL MANTEO MOSUNNY 70 60 70 E6 29.92F $$ NCZ045>047-081-094-103-104-241900- CENTRAL COAST CITY SKY/WX TMP DP RH WIND PRES REMARKS FRISCO MOSUNNY 76 61 59 SE12 29.90F HAZE $$ NCZ095-097-098-100-101-241900- SOUTHERN COAST CITY SKY/WX TMP DP RH WIND PRES REMARKS BEAUFORT SUNNY 76 61 59 SE12 29.88F CEDAR ISLAND NOT AVBL JACKSONVILLE MOSUNNY 76 60 57 SE7 29.87F PINEY ISLAND LGT RAIN N/A N/A N/A NE7 29.89F WILMINGTON MOSUNNY 75 61 61 E10 29.88F $$ NCZ011>013-027>030-043-044-078>080-089-090>093-098-241900- COASTAL PLAIN CITY SKY/WX TMP DP RH WIND PRES REMARKS AHOSKIE N/A 73 57 56 SE3 29.90F CLINTON MOSUNNY 75 60 58 SE3 29.88F ELIZABETHTOWN SUNNY 75 58 55 SE3 29.88F GOLDSBORO MOSUNNY 78 58 50 NE6 29.86F GREENVILLE MOSUNNY 75 59 57 SE6 29.91F HAVELOCK PTSUNNY 75 61 61 NE9 29.88F KENANSVILLE MOSUNNY 77 57 50 E3 29.88F KINSTON MOSUNNY 77 55 47 SE7 29.89F NEW BERN MOSUNNY 76 60 57 SE8 29.89F RICHLANDS PTSUNNY 77 59 53 VRB6 29.88F ROCKY MOUNT MOSUNNY 75 58 55 CALM 29.89F WASHINGTON MOSUNNY 77 58 52 SE8 29.89F WHITEVILLE MOSUNNY 76 59 54 CALM 29.87F $$ AMZ130-135-150-152-154-156-158-170-250-252-270-ANZ085-086-088-633-658-670-241900- MARINE OBSERVATIONS STATION/POSITION TIME TEMP WIND PRES WAVE SWELL AIR SEA DIR/SP/G HT/PER HT/PER (UTC) (F) (DEG/KT/KT) (MB) (FT/S) (FT/S) CHESAPEAKE LIGHT NOT AVBL 64 E VA BEACH 1750 60 55 90/ 6/ 6 1013.2 6/12 5/12 DUCK 1748 58 50 70/ 9/ 10 1012.6 2 E DUCK 1800 53 N/A 4/12 2/12 OREGON INLET 1742 60 56 40/ 9/ 11 1012.9 13E OREGON INLT NOT AVBL HATTERAS CG 1748 70 62 100/ 7/ 10 1012.0 DIAMOND BUOY 1750 72 74 120/ 16/ 19 1011.9 7/10 5/10 CAPE LOOKOUT 1800 67 40/ 10/ 10 1011.5 BEAUFORT LAB 1748 72 60 120/ 9/ 12 1010.9 30 SE NEW RVR IN 1708 66 40/ 6/ 10 1012.3 30 SE NEW RVR IN 1743 70 N/A 9/10 3/11 27 SE WRIGHTSVLE 1708 67 66 40/ 10/ 16 1011.5 5 SE WRIGHTSVLE 1708 62 59 50/ 8/ 12 1012.4 225 S CAPE HAT 1750 70 70 100/ 12/ 14 1006.6 12/11 11/11 41 SE CHARLESTON 1650 68 70 20/ 14/ 16 1011.3 9/11 8/11 $$

USA.gov is the U.S. government's official web portal to all federal, state and local government web resources and services.